Regional Weather Roundup
Issued by NWS Spokane, WA

Home | Current Version | Previous Version | Text Only | Print | Product List | Glossary On
Versions: 1 2 3 4 5 6 7 8 9 10 11 12 13 14 15 16 17 18 19 20 21 22 23 24 25 26 27 28 29 30 31 32 33 34 35 36 37 38 39 40 41 42 43 44 45 46 47 48 49 50
000
NZUS01 KOTX 191000
RWROTX
EASTERN WASHINGTON/NORTHERN IDAHO ROUNDUP
NATIONAL WEATHER SERVICE, SPOKANE WA
300 AM PDT FRI SEP 19 2014

Note: "fair" indicated few or no clouds below 12,000 feet with no
significant weather and/or obstructions to visibility.

...NORTHEAST WASHINGTON AND NORTHERN IDAHO PANHANDLE...

CITY           SKY/WX    TMP DP  RH WIND       PRES   REMARKS
SPOKANE INTL   CLOUDY    57  48  72 SW17      29.91R
SPOKANE DOWNTO CLOUDY    61  48  62 SW3       29.92R
COEUR D ALENE  CLOUDY    59  48  67 S9        29.93R
DEER PARK      PTCLDY    57  47  69 S8        29.91R

...SOUTHEAST WASHINGTON AND SOUTHERN IDAHO PANHANDLE...

CITY           SKY/WX    TMP DP  RH WIND       PRES   REMARKS
WALLA WALLA    PTCLDY    62  49  62 S8        29.98S
PULLMAN/MOSCOW PTCLDY    57  48  72 SW8       29.99R
LOWELL           N/A     60  54  80 CALM      29.95R

...COLUMBIA BASIN...

CITY           SKY/WX    TMP DP  RH WIND       PRES   REMARKS
EPHRATA        CLOUDY    66  48  52 SW12      29.88R
MOSES LAKE     CLOUDY    62  50  64 SW7       29.90R
TRI CITIES     PTCLDY    63  54  72 SW6       29.94R
HERMISTON      PTCLDY    62  51  67 SW7       29.95R
PENDLETON      MOCLDY    60  48  64 SW8       29.98S

...EAST SLOPES CASCADES...

CITY           SKY/WX    TMP DP  RH WIND       PRES   REMARKS
THE DALLES     PTCLDY    67  54  63 W6        29.97R
YAKIMA         PTCLDY    55  48  77 W7        29.95R
ELLENSBURG     MOCLDY    64  51  62 W18       29.96R
WENATCHEE      CLOUDY    69  48  47 NW16      29.90R
OMAK           CLOUDY    60  50  69 CALM      29.86R

...SOUTHERN BRITISH COLUMBIA...

CITY           SKY/WX    TMP DP  RH WIND       PRES   REMARKS

...WESTERN MONTANA...

CITY           SKY/WX    TMP DP  RH WIND       PRES   REMARKS
MISSOULA       CLOUDY    63  46  54 W3        29.93R

...NEIGHBORING CITIES...

CITY           SKY/WX    TMP DP  RH WIND       PRES   REMARKS
SEATTLE        CLOUDY    63  57  81 S7        30.01S



USA.gov is the U.S. government's official web portal to all federal, state and local government web resources and services.